Location: Cosy Dell
(34.2789°N, 117.4537°W)
Time: 21:20:26
(UTC+00:00)

Cosmos 158 Rocket - Pass Details

Date: 14 July 2020
Orbit: 698 x 794 km, 74.0° (Epoch: 13 August)

Event Time Altitude Azimuth Distance (km) Brightness Sun altitude
Exits shadow 04:39:58 - 194° (SSW) 2,315 6.2 -17.3°
Reaches altitude 10° 04:40:23 10° 194° (SSW) 2,149 6.0 -17.4°
Maximum altitude 04:45:13 84° 107° (ESE) 707 3.7 -18.1°
Drops below altitude 10° 04:50:08 10° 18° (NNE) 2,180 6.7 -18.8°
Sets 04:52:29 0° 18° (NNE) 3,113 7.5 -19.1°
